Powrót do katalogu

ETS 6

AktywnyŁącznośćHEO
NORAD 23230·PAYLOAD·🇯🇵 Japan

Wystrzelony Aug 28, 1994 z Tanegashima Space Center

Loading…

Następne Przeloty (najbliższe 24 godziny)

TLE

ŚwieżeSource: Space-Track

Epoka: Sep 14, 2026, 13:54 UTC

1 23230U 94056A   26257.57917436 -.00000065  00000-0  00000-0 0  9990
2 23230  12.2646 233.0574 5074525 196.5308 111.9501  1.67089833195735

Śledź ETS 6 w czasie rzeczywistym z AllMySat

Download on the App Store